[[{"header":{"parameterUnit":"m.s-1","parameterCategory":1,"la1":30.2991,"la2":30.254,"lo1":-89.0895,"lo2":-89.0444,"dy":0.0017,"dx":0.0017,"nx":28,"ny":28,"refTime":"2024-08-02T03:00:00:Z","depth":0,"parameterNumber":2,"parameterNumberName":"U-component_of_WINDS"},"data":[0,0,0,0,0,0,0,0,0,0,0,0,0,0,0,0,0,0,0,0,0,0,0,0,0,0,0,0,0,0,0,0,0,0,0,0,0,0,0,0,0,0,0,0,0,0,0,0,0,0,0,0,0,0,0,0,0,0,1.685,1.6851,0,1.6898,1.6899,1.6899,1.6864,1.6862,1.6861,1.6859,1.6913,1.6915,1.6918,0,0,0,0,0,0,0,0,0,0,0,0,0,1.6732,1.6734,1.685,1.6851,1.6851,1.6898,1.6899,1.6899,1.6864,1.6862,1.686,1.6858,1.6912,1.6915,1.6918,0,0,0,0,0,0,0,0,0,0,0,0,0,1.6782,1.6735,1.685,1.6839,1.6839,1.6898,1.6899,1.69,1.6864,1.6862,1.686,1.6858,1.6911,1.6915,1.6919,1.6993,0,0,1.6932,1.6934,0,0,0,0,0,0,0,0,1.6779,1.6786,1.684,1.684,1.684,1.6872,1.6876,1.6931,1.6865,1.6855,1.6859,1.6856,1.6901,1.6906,1.6921,1.6995,1.6997,1.6933,1.6935,1.6937,1.6938,0,0,0,0,0,0,0,1.6776,1.6784,1.6869,1.6841,1.6841,1.6833,1.6838,1.6887,1.6891,1.6856,1.6853,1.6859,1.6901,1.6917,1.6922,1.6998,1.6932,1.6936,1.6939,1.6941,1.7134,1.7136,0,0,0,0,0,0,1.6773,1.6781,1.6868,1.6871,1.6803,1.6837,1.6842,1.6864,1.689,1.6892,1.6861,1.6857,1.691,1.6917,1.6923,1.7009,1.6937,1.6941,1.6944,1.7131,1.7134,1.7137,0,0,0,0,0,0,1.677,1.6781,1.6866,1.6825,1.6836,1.6842,1.6867,1.6867,1.6882,1.6894,1.6895,1.6876,1.6909,1.6917,1.6975,1.7011,1.6943,1.6947,1.7128,1.7132,1.7136,1.7183,0,0,0,0,0,0,1.6767,1.678,1.6807,1.6826,1.6838,1.6916,1.6869,1.6869,1.6889,1.6885,1.6909,1.691,1.6908,1.6969,1.6979,1.7016,1.695,1.7125,1.713,1.7134,1.7178,1.7188,1.7196,0,0,0,0,0,1.6763,1.682,1.6809,1.6819,1.6872,1.6918,1.6925,1.6919,1.6892,1.692,1.6928,1.691,1.7006,1.6975,1.6986,1.7025,1.7123,1.7129,1.7134,1.7174,1.7186,1.7196,0,0,0,0,0,0,1.6807,1.6822,1.681,1.6875,1.6895,1.6912,1.6946,1.6932,1.6961,1.6956,1.6949,1.6955,1.7015,1.7026,1.6992,1.7096,1.706,1.7068,1.7087,1.7098,1.7107,1.7102,1.6954,0,0,0,0,0,1.6824,1.6859,1.6871,1.6927,1.6938,1.6941,1.6961,1.6954,1.6975,1.6984,1.6996,1.7018,1.7053,1.7077,1.711,1.718,1.7184,1.7212,1.7221,1.7229,1.7236,1.7272,1.7284,1.7156,1.7156,1.7156,0,0,1.686,1.6873,1.6896,1.6936,1.6951,1.6988,1.6948,1.6989,1.7016,1.6991,1.7045,1.7055,1.7079,1.7143,1.7172,1.7154,1.7272,1.7236,1.7242,1.7245,1.7279,1.7291,1.7302,1.716,1.7159,1.7158,0,0,1.6944,1.6958,1.7005,1.702,1.7042,1.7044,1.7055,1.7074,1.7078,1.7132,1.7113,1.7147,1.7208,1.7225,1.7242,1.7332,1.7316,1.7343,1.739,1.7425,1.7435,1.7444,1.7474,1.7485,1.735,1.735,1.735,0,1.6986,1.7039,1.7031,1.7073,1.7091,1.7068,1.7116,1.7132,1.7165,1.7178,1.7158,1.7232,1.7247,1.7314,1.7335,1.7351,1.7363,1.7339,1.7434,1.7443,1.7451,1.748,1.7492,1.7353,1.7353,1.7353,1.7352,0,1.7089,1.7126,1.7162,1.7192,1.7214,1.7259,1.7259,1.7283,1.7275,1.7278,1.7333,1.7351,1.7386,1.7402,1.7395,1.7467,1.7455,1.7435,1.7398,1.7467,1.7493,1.7504,1.7358,1.7356,1.7356,1.7355,0,0,1.7201,1.7225,1.7238,1.725,1.7273,1.7303,1.7347,1.7379,1.7399,1.7423,1.7459,1.7511,1.7491,1.7511,1.7506,1.7538,1.7605,1.7513,1.7514,1.7528,1.7684,1.7697,1.771,1.7595,1.7597,1.7599,1.7681,0,1.7284,1.7358,1.7352,1.7422,1.7456,1.7435,1.7473,1.7492,1.7497,1.7527,1.7533,1.7568,1.7541,1.7552,1.7583,1.759,1.7636,1.7585,1.7628,1.763,1.7621,1.7724,1.7739,1.7815,1.7691,1.7693,1.7695,0,1.739,1.7415,1.7488,1.7505,1.7519,1.7553,1.7581,1.7611,1.7632,1.7633,1.7654,1.7644,1.7688,1.7651,1.7712,1.7677,1.7695,1.7702,1.7705,1.7707,1.7665,1.7728,1.784,1.7851,1.7711,1.771,1.7709,0,1.7462,1.7514,1.7564,1.7576,1.7597,1.7621,1.7631,1.7649,1.7669,1.7695,1.7708,1.7739,1.7756,1.7781,1.778,1.7754,1.7842,1.7805,1.7843,1.7843,1.7861,1.786,1.7976,1.7876,1.7876,1.7876,1.7876,0,1.7554,1.7599,1.7596,1.7627,1.7677,1.767,1.772,1.7728,1.7744,1.7776,1.7761,1.7792,1.7789,1.7821,1.7821,1.787,1.7879,1.7881,1.788,1.7881,1.788,1.7891,1.7885,1.7879,1.7878,1.7878,1.7877,0,1.7641,1.7641,1.7694,1.7709,1.7714,1.775,1.7763,1.7792,1.7796,1.7837,1.7846,1.7852,1.7888,1.7889,1.7931,1.7931,1.7991,1.7985,1.7983,1.7981,1.8019,1.8014,1.8144,1.816,1.8052,1.8053,1.8054,0,1.7699,1.7733,1.7751,1.777,1.7781,1.7814,1.7833,1.7828,1.7849,1.7875,1.7901,1.7935,1.7962,1.802,1.8029,1.806,1.8054,1.8097,1.8059,1.8058,1.8052,1.8049,1.8052,1.8104,1.8106,1.8107,1.8107,0,1.78,1.7798,1.7826,1.7854,1.7877,1.7899,1.7919,1.7937,1.7934,1.7959,1.7994,1.8015,1.8057,1.8091,1.8121,1.8133,1.812,1.812,1.813,1.813,1.8127,1.8127,1.8001,1.8116,1.8115,1.8115,1.8114,1.8114,1.7873,1.7901,1.7918,1.7949,1.7964,1.7983,1.801,1.8017,1.8046,1.8078,1.8074,1.8113,1.8133,1.8172,1.8186,1.8217,1.8202,1.8218,1.8221,1.8225,1.8228,1.8123,1.8223,1.8223,1.8223,1.8223,1.8222,0,1.7971,1.7981,1.801,1.8038,1.8062,1.8047,1.8069,1.8091,1.8125,1.8144,1.817,1.821,1.8243,1.8254,1.8285,1.8308,1.8303,1.8316,1.8314,1.8316,1.824,1.8227,1.832,1.832,1.832,1.832,1.832,1.832,1.8025,1.8072,1.8072,1.8126,1.8136,1.8172,1.8186,1.8204,1.8218,1.8263,1.829,1.8296,1.8312,1.8344,1.8373,1.8376,1.8388,1.8403,1.8403,1.8332,1.8322,1.8312,1.83,1.8406,1.8406,1.8476,1.8477,1.8477]},{"header":{"parameterUnit":"m.s-1","parameterCategory":1,"la1":30.2991,"la2":30.254,"lo1":-89.0895,"lo2":-89.0444,"dy":0.0017,"dx":0.0017,"nx":28,"ny":28,"refTime":"2024-08-02T03:00:00:Z","depth":0,"parameterNumber":3,"parameterNumberName":"V-component_of_WINDS"},"data":[0,0,0,0,0,0,0,0,0,0,0,0,0,0,0,0,0,0,0,0,0,0,0,0,0,0,0,0,0,0,0,0,0,0,0,0,0,0,0,0,0,0,0,0,0,0,0,0,0,0,0,0,0,0,0,0,0,0,3.4727,3.4726,0,3.4637,3.4636,3.4635,3.4562,3.4562,3.4561,3.456,3.4461,3.4459,3.4457,0,0,0,0,0,0,0,0,0,0,0,0,0,3.4829,3.4828,3.4727,3.4726,3.4725,3.4637,3.4636,3.4635,3.4562,3.4562,3.4561,3.456,3.4462,3.4459,3.4457,0,0,0,0,0,0,0,0,0,0,0,0,0,3.4767,3.4827,3.4727,3.4678,3.4673,3.4638,3.4636,3.4635,3.4563,3.4562,3.456,3.4559,3.4462,3.446,3.4457,3.446,0,0,3.4448,3.4446,0,0,0,0,0,0,0,0,3.477,3.4763,3.4687,3.4682,3.4676,3.461,3.4636,3.4576,3.4563,3.4604,3.456,3.4559,3.4511,3.4504,3.4489,3.4456,3.4451,3.4447,3.4446,3.4444,3.4444,0,0,0,0,0,0,0,3.4775,3.4766,3.4691,3.4686,3.4679,3.4659,3.4649,3.4624,3.4565,3.4601,3.4595,3.4586,3.4508,3.4492,3.4486,3.445,3.4448,3.4445,3.4443,3.4442,3.4413,3.4413,0,0,0,0,0,0,3.4788,3.4771,3.4694,3.4689,3.4722,3.4658,3.4646,3.4632,3.4565,3.4554,3.4587,3.4583,3.4498,3.449,3.4483,3.4481,3.4444,3.4442,3.444,3.4412,3.4413,3.4414,0,0,0,0,0,0,3.479,3.4782,3.4698,3.4728,3.4716,3.4657,3.4642,3.4631,3.4615,3.4555,3.4543,3.4583,3.4497,3.4487,3.4466,3.4477,3.444,3.4438,3.441,3.4412,3.4413,3.4479,0,0,0,0,0,0,3.4793,3.4783,3.4785,3.4729,3.4715,3.4686,3.4642,3.463,3.4611,3.4605,3.4547,3.4537,3.4495,3.4471,3.4464,3.4472,3.4435,3.4409,3.4411,3.4413,3.4476,3.4482,3.4488,0,0,0,0,0,3.4797,3.4806,3.4786,3.4777,3.4717,3.4686,3.4678,3.4632,3.4613,3.4613,3.4574,3.4538,3.4477,3.447,3.4461,3.4468,3.4408,3.4411,3.4413,3.4473,3.4481,3.4488,0,0,0,0,0,0,3.4863,3.4798,3.4775,3.4766,3.4733,3.4674,3.4674,3.4643,3.4612,3.4607,3.455,3.4537,3.4523,3.4493,3.4486,3.4467,3.4438,3.4438,3.4487,3.4494,3.4501,3.4507,3.4433,0,0,0,0,0,3.4877,3.486,3.4803,3.4801,3.4785,3.4733,3.4718,3.4686,3.4648,3.4632,3.4591,3.4554,3.4526,3.4509,3.448,3.4471,3.4456,3.4472,3.4478,3.4484,3.4484,3.4476,3.4481,3.4421,3.4421,3.4421,0,0,3.4905,3.4867,3.4859,3.4813,3.4783,3.4764,3.4721,3.4703,3.4688,3.4629,3.4607,3.4576,3.453,3.4516,3.4507,3.4491,3.4498,3.4487,3.4492,3.4489,3.4478,3.4484,3.4489,3.4423,3.4422,3.4422,0,0,3.4945,3.4916,3.491,3.4882,3.4838,3.4803,3.4802,3.4749,3.4726,3.4705,3.4659,3.4639,3.4593,3.4562,3.454,3.4569,3.4534,3.4561,3.4594,3.4586,3.4591,3.4594,3.4603,3.4607,3.4562,3.4562,3.4562,0,3.4984,3.4957,3.4911,3.4896,3.4876,3.4824,3.4816,3.479,3.4739,3.4725,3.4708,3.4648,3.4614,3.459,3.4598,3.4582,3.4577,3.4566,3.4594,3.4598,3.46,3.4608,3.4611,3.4565,3.4565,3.4565,3.4564,0,3.5006,3.4987,3.4988,3.4941,3.4921,3.491,3.4861,3.4846,3.4815,3.4781,3.4759,3.4716,3.4677,3.4669,3.4638,3.4641,3.4632,3.4606,3.4575,3.461,3.4616,3.4619,3.457,3.4569,3.4568,3.4567,0,0,3.5084,3.5014,3.5014,3.4992,3.494,3.4924,3.4909,3.4874,3.4861,3.4827,3.4812,3.4774,3.4749,3.4725,3.469,3.4684,3.4707,3.4657,3.4655,3.4667,3.4704,3.4723,3.4728,3.4684,3.4685,3.4685,3.4708,0,3.5114,3.5088,3.5047,3.5033,3.5014,3.4964,3.4951,3.4917,3.4885,3.4862,3.4826,3.4799,3.477,3.4755,3.4746,3.4706,3.4713,3.4704,3.4667,3.4666,3.4678,3.4731,3.4751,3.4774,3.471,3.471,3.471,0,3.5146,3.5118,3.5103,3.5052,3.5042,3.5032,3.4995,3.4975,3.4934,3.4911,3.4884,3.4847,3.4827,3.4801,3.477,3.4765,3.4747,3.4725,3.4724,3.4717,3.4689,3.4723,3.478,3.4783,3.4714,3.4713,3.4713,0,3.5202,3.516,3.5145,3.5128,3.5069,3.5062,3.5037,3.4996,3.4977,3.4944,3.493,3.4895,3.4875,3.4847,3.48,3.4786,3.4774,3.4744,3.4752,3.4753,3.475,3.475,3.4803,3.4742,3.4742,3.4742,3.4742,0,3.5239,3.5232,3.5169,3.516,3.5149,3.5101,3.5091,3.506,3.5024,3.5006,3.4961,3.4944,3.4885,3.4861,3.4824,3.4803,3.4794,3.4773,3.4763,3.4776,3.4779,3.4762,3.4759,3.4743,3.4742,3.4742,3.4742,0,3.5299,3.5257,3.5238,3.5185,3.5171,3.5165,3.5118,3.5106,3.5072,3.505,3.5042,3.4987,3.4956,3.4908,3.4862,3.4837,3.4822,3.4806,3.4836,3.483,3.4839,3.4839,3.4882,3.4884,3.4824,3.4825,3.4825,0,3.5325,3.5318,3.5265,3.5251,3.5228,3.5206,3.5187,3.5139,3.512,3.5073,3.5066,3.5033,3.5003,3.4955,3.491,3.4874,3.4856,3.4874,3.485,3.4863,3.4854,3.4854,3.4852,3.4879,3.4879,3.488,3.4881,0,3.5374,3.5354,3.5329,3.5298,3.5277,3.5249,3.5218,3.5209,3.5153,3.5134,3.5104,3.5081,3.5036,3.5002,3.496,3.493,3.4895,3.4889,3.4889,3.4901,3.4918,3.4907,3.4849,3.4888,3.4887,3.4887,3.4886,3.4886,3.5415,3.5407,3.5368,3.5342,3.5315,3.5288,3.5274,3.5239,3.5214,3.5174,3.5147,3.5118,3.5075,3.5016,3.4989,3.4963,3.4948,3.4948,3.4947,3.4948,3.4952,3.4924,3.4956,3.4955,3.4955,3.4955,3.4955,0,3.546,3.5433,3.541,3.537,3.535,3.5323,3.5287,3.5271,3.5247,3.5212,3.5184,3.5148,3.5116,3.5068,3.5031,3.502,3.5002,3.5011,3.501,3.5004,3.4968,3.4972,3.5026,3.5026,3.5026,3.5026,3.5026,3.5026,3.5481,3.5465,3.544,3.5409,3.5382,3.5355,3.5337,3.5311,3.5283,3.5246,3.522,3.519,3.5149,3.5109,3.5077,3.5063,3.5051,3.5064,3.5046,3.5013,3.5006,3.5,3.5003,3.5062,3.5062,3.5083,3.5083,3.5083]}]]